Tracking 32427 objects as of 10-Dec-2025
HD Live streaming from Space Station
objects crossing your sky now

STARLINK-34213

Track STARLINK-34213 now!
10-day predictions
STARLINK-34213 is classified as:


NORAD ID: 64148
Int'l Code: 2025-112C
Perigee: 556.1 km
Apogee: 557.2 km
Inclination: 97.6 °
Period: 95.6 minutes
Semi major axis: 6927 km
RCS: Unknown
Launch date: May 27, 2025
Source: United States (US)
Launch site: AIR FORCE WESTERN TEST RANGE (AFWTR)
Your satellite tracking list
Your tracking list is empty




NASA's NSSDC Master Catalog

Two Line Element Set (TLE):
1 64148U 25112C   25344.15779262  .00003553  00000-0  25032-3 0  9992
2 64148  97.6050  33.2141 0000763 160.0859 200.0398 15.05654852 29836
Source of the keplerian elements: AFSPC